Location: Mannheim
(49.4880°N, 8.4650°E)
Time: 02:48:17
(UTC+02:00)

ISS - Visible Passes

Search period start: 20 July 2024 00:00
Search period end: 30 July 2024 00:00
Orbit: 409 x 423 km, 51.6° (Epoch: 19 July)

Date Brightness Start Highest point End Pass type
(mag) Time Alt. Az. Time Alt. Az. Time Alt. Az.
20 Jul -3.9 23:02:41 10° WNW 23:06:01 81° SSW 23:08:05 21° ESE visible
21 Jul -1.5 00:39:55 10° W 00:40:57 15° WSW 00:40:57 15° WSW visible
21 Jul -3.7 22:14:12 10° WNW 22:17:31 79° NNE 22:20:51 10° ESE visible
21 Jul -2.7 23:51:08 10° W 23:54:00 29° SW 23:54:00 29° SW visible
22 Jul -3.2 23:02:30 10° WNW 23:05:39 42° SSW 23:07:04 26° SSE visible
23 Jul -3.6 22:13:53 10° WNW 22:17:09 61° SSW 22:20:08 12° SE visible
23 Jul -1.5 23:51:36 10° WSW 23:53:01 14° SW 23:53:01 14° SW visible
24 Jul -2.0 23:02:25 10° W 23:04:58 21° SW 23:06:06 18° S visible
25 Jul -2.6 22:13:31 10° W 22:16:29 30° SW 22:19:11 12° SSE visible
27 Jul -1.4 22:13:34 10° WSW 22:15:31 15° SW 22:17:27 10° S visible
